Location: Newark
(25.0000°N, 73.5000°E)
Time: 05:09:03
(UTC+00:00)

Altair - Pass Details

Date: 05 March 2021
Orbit: 1501 x 1683 km, 47.2° (Epoch: 12 April)

Event Time Altitude Azimuth Distance (km) Brightness Sun altitude
Rises 09:55:52 0° 188° (S) 4,650 10.5 40.6°
Reaches altitude 10° 09:59:43 10° 174° (S) 3,654 9.9 39.9°
Maximum altitude 10:06:30 23° 126° (SE) 2,740 8.9 38.6°
Drops below altitude 10° 10:13:15 10° 77° (ENE) 3,653 9.1 37.3°
Sets 10:17:03 0° 64° (ENE) 4,648 9.5 36.5°
